Location: *
(52.2090°N, 4.1550°W)
Time: 06:53:13
(UTC+00:00)

NOSS 3-1 (A) - Pass Details

Date: 19 July 2019
Orbit: 774 x 1439 km, 63.4° (Epoch: 18 August)

Event Time Altitude Azimuth Distance (km) Brightness Sun altitude
Exits shadow 22:40:47 - 206° (SSW) 2,883 5.6 -13.7°
Reaches altitude 10° 22:41:56 10° 204° (SSW) 2,453 5.2 -13.8°
Maximum altitude 22:47:28 59° 126° (SE) 1,060 3.4 -14.1°
Drops below altitude 10° 22:53:55 10° 49° (NE) 2,851 6.2 -14.5°
Sets 22:56:48 0° 46° (NE) 3,915 7.0 -14.6°
